Theta_e
304 306 312 323 322 325 327 327 326 325 325 324 324 324 322 324 330 332 333 335 335 332 334 339 339 335 335 335 333 327 318 320 329 334 332 329 328 316 314 313 312 311 311 311 311 314 316 317 317
304 306 313 325 323 322 321 323 326 325 325 324 325 325 329 330 330 329 332 335 334 331 333 338 340 336 335 336 335 331 329 325 329 331 332 330 323 315 315 314 311 309 309 312 313 315 315 316 317
301 311 323 320 323 321 316 322 322 323 326 326 326 326 327 330 333 333 333 335 333 331 333 336 340 340 338 337 336 332 332 331 332 332 332 330 325 318 316 312 310 309 311 313 314 315 316 317 319
304 316 320 323 319 319 317 320 321 322 324 325 324 322 327 332 333 333 333 334 333 332 335 336 339 339 339 338 336 332 331 331 330 330 331 332 327 320 316 311 310 312 313 314 315 316 317 318 319
306 317 317 317 315 315 316 320 320 319 320 322 322 322 322 324 326 331 333 333 333 332 336 336 337 339 339 338 335 332 330 331 330 330 330 330 328 325 315 316 313 314 319 315 316 316 318 319 321
309 315 316 313 310 311 314 317 318 319 321 321 320 319 322 325 329 333 333 333 333 333 337 338 338 339 338 338 336 332 326 328 329 329 330 329 328 327 323 313 317 324 321 316 316 317 319 321 322
305 311 310 309 310 310 315 314 317 317 316 317 316 317 321 324 331 334 334 333 334 334 336 337 338 337 337 336 335 331 324 326 329 327 329 328 328 328 326 323 325 323 317 316 317 320 321 322 323
305 303 306 307 309 309 307 304 305 307 308 308 313 324 323 316 325 333 335 335 334 334 337 336 336 337 336 337 333 329 324 327 328 327 326 327 326 327 330 325 327 318 316 317 322 324 322 321 323
303 301 301 302 303 303 304 303 305 305 305 307 307 306 311 310 322 332 337 336 336 336 338 336 336 339 338 336 329 326 323 326 326 325 327 326 326 327 329 326 326 316 323 323 324 324 322 320 322
301 299 300 300 303 302 302 303 304 304 304 304 306 310 310 308 312 329 333 334 338 336 337 336 336 338 337 334 327 323 321 326 323 325 326 326 325 326 325 316 315 318 323 323 326 324 322 321 320
302 301 301 302 303 303 302 302 303 302 303 306 305 305 306 306 306 309 322 329 334 337 337 334 336 334 336 329 325 324 325 326 326 325 325 326 325 327 321 316 314 320 323 326 326 324 319 319 321
301 301 301 301 301 301 301 301 300 301 301 302 304 305 305 305 306 307 309 316 330 335 336 335 335 335 334 330 323 323 325 325 324 325 325 325 324 325 319 312 314 321 323 324 324 322 319 318 320
300 300 301 301 301 301 301 300 300 300 300 299 301 302 305 306 306 306 307 307 311 331 335 335 335 335 334 328 323 325 324 323 325 325 324 325 323 323 316 313 314 319 321 322 323 322 320 318 318
301 301 301 301 301 301 301 300 300 300 300 300 300 302 304 305 305 305 305 305 305 318 330 335 335 336 334 328 321 324 326 322 326 325 324 325 323 327 320 313 313 317 319 322 323 322 320 318 318
301 301 300 300 300 299 299 299 298 300 300 301 301 302 301 301 302 303 303 303 304 315 328 330 335 336 335 330 320 320 322 322 320 325 326 325 322 320 316 313 313 316 320 323 323 322 322 321 320
301 300 301 299 300 300 298 299 298 300 300 299 300 301 302 302 303 304 304 304 304 314 320 328 333 334 334 332 321 319 319 320 320 318 318 319 319 317 317 314 314 316 320 322 323 323 322 322 321
301 301 300 300 300 301 300 300 299 301 301 300 301 300 301 302 302 304 304 305 305 314 316 327 329 332 332 332 327 320 318 316 318 317 315 315 314 314 316 314 313 316 319 322 323 323 323 322 322
300 301 301 301 301 301 301 300 300 300 301 300 301 300 301 301 302 303 303 304 306 314 315 324 327 331 331 330 327 322 320 318 317 316 315 315 313 313 316 315 314 316 318 322 323 324 324 321 322
301 301 301 300 300 302 302 302 301 301 300 300 300 300 300 301 301 302 303 304 308 313 315 327 327 329 328 328 328 327 323 321 321 320 317 313 313 313 315 316 316 319 320 322 324 324 323 322 321
301 301 301 300 300 301 301 300 300 300 300 300 300 300 300 301 301 301 302 303 311 314 315 326 328 324 326 330 326 328 329 328 328 326 324 317 312 310 313 316 319 321 322 324 324 323 324 322 321
300 300 300 301 300 300 300 301 300 300 300 300 301 301 300 301 301 301 302 302 305 313 313 317 328 325 330 328 326 327 327 328 328 328 326 325 322 314 312 315 318 322 321 323 324 324 325 323 322
300 299 300 301 302 301 300 301 300 298 298 299 300 301 301 301 301 301 302 302 303 308 313 315 325 330 329 329 330 327 327 327 327 329 329 328 328 327 322 318 319 319 319 318 321 324 323 322 322
300 300 300 301 301 301 301 302 299 298 300 300 299 299 300 300 301 301 302 302 303 308 309 311 321 321 327 330 330 329 326 325 326 327 328 328 328 328 327 324 324 321 322 323 322 321 325 322 322
298 299 300 301 302 300 301 302 302 300 297 295 296 297 299 300 301 301 301 301 302 305 311 310 320 322 326 328 328 327 327 329 329 329 328 328 327 328 328 326 325 323 322 323 319 322 323 325 323
299 298 297 294 297 300 301 303 301 295 293 292 293 293 294 299 300 301 301 301 302 304 314 312 319 321 321 321 324 326 327 329 329 329 329 328 328 327 326 326 325 325 323 322 322 322 322 324 323
299 298 300 297 302 301 302 305 305 292 291 290 291 292 294 300 301 301 301 301 302 304 312 317 318 323 321 322 322 321 325 327 327 328 329 329 327 326 326 326 325 323 324 324 324 322 321 321 320
295 296 294 296 298 299 302 296 299 290 289 288 290 299 299 303 300 301 301 302 303 304 311 321 321 323 320 321 321 320 325 326 328 327 325 325 326 323 323 322 324 321 320 319 319 318 314 312 311
295 293 292 296 297 298 304 295 290 288 287 287 301 298 298 298 299 300 302 305 307 315 322 323 322 320 322 323 320 321 319 322 322 321 320 320 321 320 318 318 319 318 316 315 314 313 313 312 310
293 291 292 293 296 299 300 293 289 286 285 286 302 302 303 303 302 303 306 313 316 317 318 319 322 322 322 322 321 321 316 316 316 317 314 315 315 314 315 312 313 310 306 305 304 303 303 302 301
293 291 291 291 297 294 296 294 287 285 283 287 298 299 298 298 298 301 304 311 312 310 314 317 318 321 318 320 319 319 317 314 313 311 311 309 309 308 306 304 303 302 301 300 299 298 297 297 296
Wind_Speed
11 9 7 3 1 3 7 6 2 4 2 5 1 3 6 17 5 5 6 13 21 34 39 39 37 37 35 32 28 26 26 26 25 24 24 22 21 21 19 18 18 17 18 19 19 19 19 18 18
9 4 3 2 2 7 9 9 10 12 11 6 11 8 4 8 16 21 18 17 20 33 38 40 38 38 35 32 29 26 24 25 24 24 25 23 22 21 21 19 19 19 19 20 20 19 18 17 15
6 1 3 3 5 18 7 5 17 14 20 14 9 9 9 4 7 8 10 20 26 36 38 41 39 37 35 32 30 27 26 25 24 25 26 24 23 22 21 20 20 20 21 21 20 18 16 16 15
2 3 2 5 19 4 3 2 4 5 8 17 8 8 8 10 12 10 12 23 29 36 38 40 41 37 35 32 30 28 28 26 26 25 24 24 23 22 21 21 21 21 21 21 19 17 16 15 14
1 3 2 6 14 5 6 6 8 6 5 6 11 6 14 25 24 22 16 24 30 36 39 42 42 39 36 32 30 29 29 28 27 27 24 23 24 24 23 21 22 22 20 20 19 17 16 14 13
3 2 4 7 7 4 4 13 17 6 8 12 9 8 10 13 15 13 15 23 29 36 39 40 41 41 37 34 31 29 30 30 29 26 25 23 23 23 22 24 22 20 20 20 18 17 16 15 13
5 3 5 5 3 4 2 11 4 8 5 3 11 4 7 12 8 10 14 24 29 33 38 40 39 38 36 35 34 31 31 30 28 27 26 24 24 23 22 21 21 20 20 20 18 17 16 15 13
2 3 3 3 2 5 5 15 16 10 4 21 5 1 6 20 15 14 15 23 28 31 37 40 40 39 37 35 33 33 31 29 27 27 26 25 24 23 22 21 20 20 19 18 16 15 16 15 14
3 1 3 6 5 4 11 7 13 14 14 10 13 22 17 21 20 8 18 22 29 31 36 42 42 40 38 36 33 34 31 30 29 26 27 28 27 25 24 23 20 20 17 16 15 15 14 14 15
3 3 7 7 3 4 8 7 12 10 17 14 24 9 14 19 16 11 12 23 32 34 36 43 45 42 40 36 34 36 33 31 29 29 30 30 29 27 26 22 22 21 19 17 15 14 14 15 17
3 5 4 3 12 15 4 8 11 6 16 7 20 31 26 24 22 19 19 13 26 37 37 42 46 42 40 38 36 36 35 32 32 32 32 31 31 27 26 24 24 23 22 21 20 17 15 16 17
4 10 10 7 16 9 5 11 10 20 25 33 29 21 30 31 26 23 22 22 19 28 38 41 47 45 42 39 38 39 37 36 35 34 34 33 31 29 28 26 26 26 25 22 19 16 15 15 17
9 8 14 15 14 20 21 17 16 24 37 37 37 33 21 24 24 27 25 27 24 23 37 43 47 47 45 43 41 39 39 37 36 34 34 33 32 30 28 27 26 26 24 22 18 16 15 16 18
5 9 12 17 21 21 14 22 9 27 30 29 34 30 29 28 34 35 31 30 26 29 21 47 49 51 48 44 44 41 40 37 36 35 35 34 34 32 29 28 27 25 24 22 18 16 15 15 17
12 12 16 16 22 12 16 11 10 27 27 31 32 32 28 27 30 33 32 31 28 26 35 28 50 55 49 46 45 43 40 37 36 35 36 35 35 32 31 29 28 26 24 22 20 18 18 17 17
5 5 7 2 2 7 7 16 10 17 20 23 26 27 26 25 26 27 27 28 27 17 18 29 48 49 49 47 45 42 40 37 35 33 31 32 31 30 30 29 27 26 25 24 22 20 19 18 17
4 8 11 15 7 8 10 15 7 9 12 20 30 30 27 24 20 20 20 23 22 18 20 29 34 48 53 45 43 41 39 37 35 32 30 27 26 28 30 29 27 26 26 26 24 23 20 18 19
10 15 15 17 5 9 14 17 12 26 21 23 30 31 29 26 24 14 12 17 20 15 20 28 33 23 49 41 41 43 41 38 35 32 29 27 27 28 29 28 28 27 27 28 26 24 22 20 21
15 17 23 22 17 16 18 21 19 20 23 19 27 28 27 25 23 22 19 15 18 17 19 22 29 25 27 29 35 40 43 40 36 34 29 27 27 28 30 29 29 28 29 29 27 25 26 26 24
13 18 22 21 12 11 17 22 19 17 15 23 26 28 28 22 22 23 21 15 13 21 16 16 25 20 32 38 33 36 41 39 35 34 30 27 27 27 30 32 29 27 28 30 30 29 30 29 27
13 12 18 19 17 10 17 16 15 17 22 29 30 33 27 26 25 26 23 17 10 19 23 9 23 31 37 39 32 36 35 36 38 37 34 30 27 28 30 32 29 29 28 33 31 33 32 31 31
11 4 10 13 11 5 5 7 12 6 11 10 20 26 28 29 28 27 24 17 14 14 16 12 9 18 29 35 48 44 43 43 39 36 32 31 32 30 31 31 32 30 30 34 34 35 35 34 35
9 14 16 19 14 12 8 5 6 6 9 15 14 17 15 23 27 27 24 17 11 13 11 14 7 8 15 29 35 38 35 37 32 31 32 35 31 31 31 30 30 31 34 34 36 38 41 39 38
14 11 20 9 6 4 4 8 3 5 12 17 16 24 22 18 22 24 20 15 10 8 15 10 8 5 6 17 15 23 43 38 34 31 33 32 29 29 30 32 33 32 35 38 37 38 41 42 42
17 14 4 5 2 4 5 5 5 17 22 19 22 27 26 20 18 18 19 15 11 8 11 12 12 7 7 4 7 17 38 35 29 28 29 28 29 28 29 31 34 35 34 35 38 41 43 43 43
14 8 4 5 4 7 7 3 4 23 30 32 31 35 23 16 14 12 14 14 10 4 8 14 13 10 2 3 4 16 23 26 21 24 25 24 24 25 29 33 35 37 37 40 40 42 42 41 42
9 7 16 5 10 4 3 8 2 30 34 36 38 3 10 9 12 9 7 4 4 4 4 12 9 5 2 4 5 10 13 20 23 23 21 27 25 23 22 25 26 27 32 33 32 31 24 21 23
9 11 5 3 4 4 5 6 10 29 33 34 18 13 17 10 11 10 9 7 6 8 13 14 16 10 5 4 2 15 7 10 10 12 10 8 6 7 5 8 11 15 18 16 16 14 14 17 17
10 8 4 5 3 3 4 3 11 20 26 27 18 26 30 27 27 29 26 24 21 17 18 20 16 10 10 12 14 14 12 15 13 12 16 13 7 8 8 7 5 4 6 9 8 7 6 6 3
9 14 5 3 4 3 3 2 19 21 23 26 25 28 33 33 35 38 35 35 32 31 30 31 31 28 28 25 17 13 16 17 21 25 23 21 20 18 18 16 17 17 16 16 16 15 14 11 10
Wind_Direction
304 284 265 265 2 247 229 229 192 194 235 201 214 209 204 222 196 216 276 210 200 186 181 179 182 186 185 181 181 180 181 180 179 168 167 178 179 175 171 163 158 156 151 147 146 145 146 148 150
316 288 196 198 194 243 241 208 231 219 222 275 306 293 269 248 249 257 260 197 198 187 182 182 182 186 187 183 184 183 179 178 177 171 168 174 178 178 172 167 161 159 153 150 150 152 155 157 157
326 174 159 163 216 235 257 198 241 243 253 272 307 276 289 263 257 241 244 201 182 186 184 184 182 186 188 186 185 185 181 180 178 175 169 176 183 183 174 168 164 162 158 155 157 160 164 164 162
32 140 226 242 240 290 213 317 340 322 277 260 268 278 264 281 310 289 246 202 189 189 186 184 184 188 189 188 187 186 184 184 182 179 181 177 179 177 175 170 167 163 161 159 163 167 171 170 170
152 135 240 251 266 289 303 296 306 271 318 277 311 270 292 293 303 286 270 204 192 190 189 186 186 188 191 190 189 187 188 187 186 184 179 181 177 172 175 169 167 168 164 164 170 172 174 176 175
133 134 225 246 263 328 309 284 279 273 271 284 294 292 282 278 288 303 255 207 194 192 191 189 188 190 193 192 192 191 193 190 192 186 178 182 177 173 173 173 168 166 165 169 172 175 178 181 181
139 144 231 285 261 294 258 328 340 304 319 283 305 256 267 263 293 276 241 219 201 196 192 192 193 194 193 195 194 196 197 194 191 190 181 183 182 178 174 171 170 172 169 172 175 178 182 186 182
202 112 310 263 349 281 24 352 346 359 303 325 334 357 327 330 301 260 235 220 203 198 196 195 194 195 195 195 196 198 197 194 187 187 182 188 184 184 179 177 174 173 174 173 178 185 188 191 187
187 97 217 237 221 265 342 4 324 316 299 305 298 304 298 324 321 254 221 210 208 200 199 198 196 197 195 197 194 197 197 193 190 187 185 190 187 186 181 183 180 178 170 174 181 195 192 197 197
161 184 225 211 202 278 302 300 312 311 308 299 298 274 292 314 320 274 217 217 208 204 200 203 201 201 201 200 193 194 193 193 187 189 191 190 188 189 189 184 181 173 174 177 189 201 203 202 202
226 222 248 272 283 293 253 285 300 284 282 258 303 307 304 309 307 306 287 249 231 218 204 206 207 203 200 201 193 190 190 189 187 190 190 190 191 191 190 187 180 176 181 187 199 205 208 208 207
279 247 258 288 295 297 286 297 277 273 270 280 283 272 292 290 292 296 293 284 249 224 214 209 207 205 203 204 197 192 192 191 191 192 193 193 191 194 193 188 186 185 190 197 201 209 212 210 210
247 260 264 270 289 287 285 261 261 271 277 280 278 282 271 270 276 288 288 285 279 251 218 217 211 209 206 205 199 196 193 196 192 193 197 197 197 197 192 191 193 195 196 202 205 212 218 218 214
242 273 278 288 281 273 267 268 244 257 270 269 275 264 266 267 275 283 283 281 282 267 241 213 211 211 206 204 202 198 198 202 195 197 200 201 204 200 198 196 198 200 201 203 211 217 219 222 222
276 282 284 266 263 257 249 264 235 259 271 267 267 274 280 272 270 271 276 275 278 275 247 244 203 208 209 204 204 202 203 203 206 198 202 205 212 201 199 200 201 202 204 206 210 213 218 225 228
281 255 283 136 181 246 179 272 270 261 256 265 277 283 285 279 270 266 268 266 269 270 259 250 206 205 206 204 202 203 206 207 209 207 215 210 214 205 202 205 206 206 208 211 212 216 220 223 234
195 267 264 294 239 252 193 266 232 252 272 286 285 281 280 281 280 271 272 257 253 260 274 229 240 205 205 200 200 206 210 210 211 213 214 216 214 206 206 208 209 210 213 217 217 220 224 230 240
287 287 284 283 282 270 271 256 263 276 271 257 268 274 275 274 274 267 288 259 240 244 284 248 240 225 201 189 200 204 208 210 213 215 215 216 215 212 212 213 213 215 217 220 222 223 229 239 245
273 281 284 280 283 279 267 262 258 261 257 249 253 260 262 267 270 268 275 295 227 237 250 226 229 226 240 187 204 209 208 208 212 216 216 216 217 216 216 217 217 219 224 223 227 227 235 236 246
283 282 280 282 284 276 271 268 267 256 250 242 243 254 256 256 263 264 267 277 227 229 237 225 226 236 205 193 199 209 212 212 216 217 217 219 222 223 222 223 223 225 228 228 231 235 235 240 246
282 271 282 279 307 262 271 277 261 254 245 246 244 246 247 249 254 258 260 263 247 222 227 255 220 219 210 193 198 201 210 218 217 219 218 217 223 227 225 224 227 227 234 232 239 242 235 248 250
301 312 291 288 306 296 76 298 300 260 245 237 248 249 239 240 244 248 253 256 252 232 219 243 216 220 227 220 198 199 199 205 213 220 218 218 224 229 233 229 230 238 229 238 240 239 241 250 251
267 292 284 278 270 289 271 236 279 15 10 357 352 323 277 253 242 235 242 245 248 226 227 238 235 273 247 210 217 206 208 210 215 216 221 222 225 229 233 237 242 239 237 240 243 243 244 246 249
275 294 294 269 243 250 259 198 324 24 345 329 324 322 318 290 253 240 233 235 228 216 221 218 229 275 182 239 234 223 219 217 217 218 222 226 226 233 239 241 242 245 246 243 252 251 252 249 252
333 335 314 349 8 228 351 190 57 5 353 333 318 308 300 299 253 238 228 217 218 227 196 206 211 220 252 269 291 230 243 234 224 221 225 228 228 234 241 245 249 255 252 253 255 256 258 257 251
321 332 319 310 313 313 274 304 123 3 346 329 313 295 272 277 239 235 224 211 211 220 204 181 206 217 251 50 253 306 269 241 243 255 239 241 231 250 251 248 248 250 249 247 251 255 253 249 245
317 337 304 254 259 238 245 358 299 348 340 341 329 171 207 240 205 169 180 172 195 194 192 200 179 173 183 11 58 320 250 241 231 227 231 233 236 257 257 257 256 272 273 269 272 268 262 262 264
346 348 348 339 316 325 42 61 346 344 337 328 357 48 54 58 88 103 97 103 115 108 139 155 156 141 99 48 62 350 132 194 170 169 165 175 179 259 278 294 306 301 290 283 284 281 281 272 270
6 358 316 290 272 336 334 88 360 347 332 325 32 56 65 68 75 87 95 99 101 113 122 130 150 147 112 98 90 58 48 66 74 85 77 72 73 60 58 53 46 48 33 22 27 35 30 5 12
29 2 337 264 28 320 306 75 8 351 338 349 21 44 63 67 72 85 94 98 98 98 103 107 110 113 103 91 80 82 79 66 65 69 70 74 78 74 66 62 67 65 58 55 56 58 58 61 59